Location: L�Ave Maria
(50.7161°N, 1.5911°E)
Time: 23:45:35
(UTC+00:00)

Cosmos 1295 Rocket - Pass Details

Date: 10 July 2020
Orbit: 944 x 993 km, 82.9° (Epoch: 14 August)

Event Time Altitude Azimuth Distance (km) Brightness Sun altitude
Exits shadow 22:17:04 14° 186° (S) 2,371 6.0 -13.8°
Maximum altitude 22:22:22 86° 99° (E) 958 4.4 -14.1°
Drops below altitude 10° 22:28:30 10° 11° (N) 2,677 7.7 -14.5°
Sets 22:30:59 0° 11° (N) 3,625 8.5 -14.6°
